Location: *
(23.5860°S, 65.4036°W)
Time: 21:15:34
(UTC+00:00)

Meteor 1-10 Rocket - Pass Details

Date: 25 August 2019
Orbit: 836 x 910 km, 81.3° (Epoch: 14 October)

Event Time Altitude Azimuth Distance (km) Brightness Sun altitude
Rises 22:42:28 0° 1° (N) 3,504 7.5 -8.5°
Reaches altitude 10° 22:44:57 10° 4° (N) 2,562 6.8 -9.0°
Maximum altitude 22:50:44 68° 85° (E) 958 4.3 -10.4°
Drops below altitude 10° 22:56:29 10° 167° (SSE) 2,542 6.5 -11.7°
Sets 22:58:56 0° 169° (S) 3,474 7.2 -12.2°
